Location: Les Jeannots
(43.2262°N, 5.5774°E)
Time: 01:19:28
(UTC+00:00)

Meteor 1-26 Rocket - Pass Details

Date: 05 July 2020
Orbit: 811 x 924 km, 81.3° (Epoch: 11 August)

Event Time Altitude Azimuth Distance (km) Brightness Sun altitude
Rises 23:25:23 0° 350° (N) 3,579 8.9 -24.0°
Reaches altitude 10° 23:27:53 10° 351° (N) 2,627 7.8 -24.0°
Maximum altitude 23:33:55 83° 80° (E) 922 4.3 -24.1°
Enters shadow 23:35:18 55° 160° (SSE) 1,077 4.3 -24.1°
